Home > Weather > Samsun > Past weeks

Flag for Turkey Weather for the Past 2 Weeks in Samsun, Turkey

Now
48 °F

Clear.


Feels Like: 48 °F
Forecast: 41 / 65 °F
Wind: 2 mph from South

Location: Samsun / Carsamba

Current Time: May 1, 2016 at 11:24:39 PM

Latest Report: May 1, 2016 at 10:50 PM


Visibility: 10 mi

Pressure: 30.12 "Hg

Humidity: 94%

Dew Point: 46 °F

Location of SamsunLocation

Historic Weather in Samsun — Graph

°F

Samsun Temperature Yesterday

Maximum temperature yesterday: 55 °F (at 9:02 AM)
Minimum temperature yesterday: 52 °F (at 12:50 AM)
Average temperature yesterday: 54 °F

High & Low Weather Summary for the Past Weeks

 TemperatureHumidityPressure
High91 °F (Apr 20, 12:50 PM)100% (Apr 17, 3:50 AM)30.36 "Hg (Apr 17, 3:50 AM)
Low39 °F (Apr 22, 5:50 AM)20% (Apr 19, 2:50 PM)29.42 "Hg (Apr 25, 12:50 AM)
Average58 °F75%29.96 "Hg
* Reported Apr 16 9:50 PM — May 1 9:50 PM, Samsun, Weather by CustomWeather, © 2016

Note: Actual official high and low records may vary slightly from our data, if they occured in-between our weather recording intervals... More about our weather records

Advertising

Samsun Weather History for the Previous 24 Hours

Scroll right to see more
 ConditionsComfort  
Time TempWeatherWind HumidityBarometerVisibility
9:50 PM
Sun, May 1
50 °FClear.No wind94%30.12 "Hg10 mi
8:50 PM54 °FClear.2 mph88%30.12 "Hg10 mi
7:50 PM55 °FSunny.3 mph77%30.12 "Hg10 mi
6:50 PM59 °FPassing clouds.3 mph72%30.09 "HgN/A
5:50 PM61 °FPassing clouds.6 mph63%30.09 "HgN/A
4:50 PM63 °FPassing clouds.9 mph56%30.09 "HgN/A
3:50 PM63 °FPassing clouds.9 mph56%30.09 "HgN/A
2:50 PM64 °FPassing clouds.8 mph56%30.09 "HgN/A
1:50 PM63 °FPassing clouds.9 mph59%30.09 "HgN/A
12:50 PM63 °FPassing clouds.9 mph59%30.12 "HgN/A
11:50 AM61 °FPassing clouds.7 mph63%30.09 "HgN/A
10:50 AM61 °FScattered clouds.6 mph68%30.12 "HgN/A
9:50 AM59 °FBroken clouds.6 mph68%30.12 "HgN/A
8:50 AM59 °FPartly sunny.1 mph72%30.09 "HgN/A
7:50 AM54 °FBroken clouds.No wind88%30.09 "HgN/A
6:50 AM50 °FBroken clouds.2 mph100%30.09 "HgN/A
5:50 AM48 °FPartly cloudy.3 mph100%30.09 "Hg5 mi
4:50 AM46 °FPartly cloudy.No wind100%30.07 "Hg4 mi
3:50 AM48 °FFog.No wind94%30.07 "Hg2 mi
2:50 AM48 °FFog.No wind94%30.07 "Hg2 mi
1:50 AM50 °FFog.No wind94%30.07 "Hg2 mi
12:50 AM52 °FPartly cloudy.No wind94%30.09 "Hg4 mi
11:50 PM
Sat, Apr 30
52 °FPartly cloudy.2 mph94%30.07 "HgN/A
Weather by CustomWeather, © 2016

See weather overviewHow to use our weather pages